This demonstration page uses our WeatherBlox Daily Observations layout. Learn more.

Left ArrowRight Arrow

47.50024, -111.30081

Hourly Observations for March 17, 2017

Temp ( °F °C ) Dew Point ( °F °C ) Humidity (%) Winds ( mph kmh ) Pressure ( in mb ) Visibility ( mi km ) Precip ( " mm )
12:53 am 00:53 Clear 29 -1.7 15 -9.4 56 56 SSW 8 13 30.23 1024 10 16 0.00 0.00
1:53 am 01:53 Clear 31 -0.6 16 -8.9 54 54 SW 15 24 30.22 1024 10 16 0.00 0.00
2:53 am 02:53 Clear 27 -2.8 15 -9.4 61 61 SW 8 13 30.26 1025 10 16 0.00 0.00
3:53 am 03:53 Clear 31 -0.6 14 -10 49 49 W 10 17 30.26 1025 10 16 0.00 0.00
4:53 am 04:53 Clear 25 -3.9 16 -8.9 69 69 NW 8 13 30.29 1026 10 16 0.00 0.00
5:53 am 05:53 Clear 26 -3.3 13 -10.6 57 57 SSW 5 7 30.32 1027 10 16 0.00 0.00
6:53 am 06:53 Clear 26 -3.3 13 -10.6 57 57 S 5 7 30.33 1027 10 16 0.00 0.00
7:53 am 07:53 Sunny 25 -3.9 14 -10 63 63 SSE 7 11 30.34 1028 10 16 0.00 0.00
8:53 am 08:53 Sunny 37 2.8 19 -7.2 48 48 S 6 9 30.31 1027 10 16 0.00 0.00
9:53 am 09:53 Sunny 41 5 17 -8.3 38 38 SSW 9 15 30.30 1026 10 16 0.00 0.00
10:53 am 10:53 Sunny 45 7.2 17 -8.3 33 33 SSW 9 15 30.28 1026 10 16 0.00 0.00
11:53 am 11:53 Sunny 49 9.4 19 -7.2 31 31 SW 8 13 30.25 1025 10 16 0.00 0.00
12:53 pm 12:53 Sunny 51 10.6 15 -9.4 24 24 SW 8 13 30.22 1024 10 16 0.00 0.00
1:53 pm 13:53 Sunny 54 12.2 14 -10 20 20 VRB 7 11 30.18 1022 10 16 0.00 0.00
2:53 pm 14:53 Sunny 56 13.3 13 -10.6 18 18 VRB 6 9 30.14 1021 10 16 0.00 0.00
3:53 pm 15:53 Sunny 58 14.4 12 -11.1 16 16 SSE 6 9 30.09 1019 10 16 0.00 0.00
4:53 pm 16:53 Cloudy 56 13.3 10 -12.2 16 16 S 6 9 30.10 1019 10 16 0.00 0.00
5:53 pm 17:53 Cloudy 53 11.7 19 -7.2 26 26 NE 10 17 30.09 1019 10 16 0.00 0.00
6:53 pm 18:53 Cloudy 52 11.1 20 -6.7 28 28 E 8 13 30.06 1018 10 16 0.00 0.00
7:53 pm 19:53 Cloudy 50 10 22 -5.6 33 33 ESE 7 11 30.04 1017 10 16 0.00 0.00
8:53 pm 20:53 Cloudy 48 8.9 23 -5 37 37 E 6 9 30.01 1016 10 16 0.00 0.00
9:53 pm 21:53 Cloudy 47 8.3 24 -4.4 41 41 SSE 5 7 30.00 1016 10 16 0.00 0.00
10:53 pm 22:53 Clear 44 6.7 26 -3.3 49 49 S 7 11 29.98 1015 10 16 0.00 0.00
11:53 pm 23:53 Clear 44 6.7 21 -6.1 40 40 SSW 6 9 29.98 1015 10 16 0.00 0.00

Powered by AerisWeather